• In Lithuania
  • List of Countries
  • For 7 days
  • Water Temperature
  • Satellite Maps
  • Weather Map
  • Weather Widgets
  • user-avatar
    Login

    Hourly Weather Veselivka

    Today, 11 December, Monday

    Time Temperature Precipitation Wind Pressure Humidity
    00:00 -1°C° 0.3 mm 6 mps 737 mmHg 92%
    01:00 -2°C° 0.3 mm 7 mps 738 mmHg 91%
    02:00 -3°C° 0.3 mm 7 mps 739 mmHg 90%
    03:00 -4°C° 0.3 mm 7 mps 740 mmHg 89%
    04:00 -4°C° 0.3 mm 7 mps 741 mmHg 87%
    05:00 -6°C° 0.3 mm 7 mps 742 mmHg 86%
    06:00 -5°C° 0 mm 6 mps 743 mmHg 86%
    07:00 -6°C° 0 mm 6 mps 744 mmHg 87%
    08:00 -6°C° 0 mm 5 mps 745 mmHg 87%
    09:00 -5°C° 0 mm 5 mps 746 mmHg 83%
    10:00 -4°C° 0 mm 5 mps 746 mmHg 79%
    11:00 -2°C° 0 mm 5 mps 746 mmHg 75%
    12:00 -2°C° 0 mm 5 mps 747 mmHg 75%
    13:00 -3°C° 0 mm 6 mps 747 mmHg 75%
    14:00 -3°C° 0 mm 6 mps 747 mmHg 75%
    15:00 -2°C° 0 mm 6 mps 747 mmHg 77%
    16:00 -1°C° 0 mm 5 mps 747 mmHg 79%
    17:00 -1°C° 0 mm 5 mps 747 mmHg 81%
    18:00 -1°C° 0.1 mm 5 mps 747 mmHg 82%
    19:00 -2°C° 0.1 mm 5 mps 747 mmHg 83%
    20:00 -2°C° 0.1 mm 5 mps 747 mmHg 84%
    21:00 -1°C° 0 mm 5 mps 747 mmHg 86%
    22:00 -1°C° 0 mm 5 mps 747 mmHg 87%
    23:00 -1°C° 0 mm 4 mps 747 mmHg 89%

    Tomorrow, 12 December, Tuesday

    Time Temperature Precipitation Wind Pressure Humidity
    00:00 -1°C° 0.1 mm 4 mps 747 mmHg 91%
    01:00 0°C° 0.1 mm 5 mps 747 mmHg 92%
    02:00 0°C° 0.1 mm 5 mps 747 mmHg 94%
    03:00 0°C° 0.2 mm 5 mps 747 mmHg 94%
    04:00 0°C° 0.2 mm 5 mps 747 mmHg 94%
    05:00 0°C° 0.2 mm 5 mps 747 mmHg 95%
    06:00 0°C° 0.1 mm 5 mps 747 mmHg 94%
    07:00 0°C° 0.1 mm 5 mps 747 mmHg 93%
    08:00 0°C° 0.1 mm 5 mps 747 mmHg 92%
    09:00 +1°C° 0 mm 5 mps 747 mmHg 90%
    10:00 +1°C° 0 mm 5 mps 747 mmHg 87%
    11:00 +2°C° 0 mm 5 mps 747 mmHg 85%
    12:00 +2°C° 0 mm 5 mps 747 mmHg 84%
    13:00 +2°C° 0 mm 5 mps 747 mmHg 84%
    14:00 +2°C° 0 mm 5 mps 747 mmHg 84%
    15:00 +2°C° 0 mm 5 mps 747 mmHg 85%
    16:00 +1°C° 0 mm 5 mps 748 mmHg 86%
    17:00 +1°C° 0 mm 5 mps 748 mmHg 87%
    18:00 +1°C° 0 mm 5 mps 748 mmHg 87%
    19:00 +1°C° 0 mm 5 mps 748 mmHg 88%
    20:00 +1°C° 0 mm 4 mps 749 mmHg 88%
    21:00 +1°C° 0 mm 4 mps 749 mmHg 88%
    22:00 +1°C° 0 mm 4 mps 749 mmHg 89%
    23:00 +1°C° 0 mm 4 mps 749 mmHg 89%

    Day after tomorrow, 13 December, Wednesday

    Time Temperature Precipitation Wind Pressure Humidity
    00:00 +1°C° 0 mm 4 mps 750 mmHg 89%
    01:00 +2°C° 0 mm 3 mps 750 mmHg 90%
    02:00 +2°C° 0 mm 3 mps 750 mmHg 90%
    03:00 +2°C° 0 mm 3 mps 750 mmHg 90%
    04:00 +2°C° 0 mm 3 mps 750 mmHg 90%
    05:00 +2°C° 0 mm 3 mps 750 mmHg 90%
    06:00 +2°C° 0 mm 3 mps 750 mmHg 90%
    07:00 +2°C° 0 mm 3 mps 750 mmHg 90%
    08:00 +2°C° 0 mm 3 mps 750 mmHg 90%
    09:00 +2°C° 0 mm 3 mps 750 mmHg 88%
    10:00 +3°C° 0 mm 3 mps 750 mmHg 87%
    11:00 +4°C° 0 mm 3 mps 750 mmHg 85%
    12:00 +3°C° 0 mm 3 mps 750 mmHg 86%
    13:00 +4°C° 0 mm 2 mps 750 mmHg 88%
    14:00 +4°C° 0 mm 2 mps 750 mmHg 89%
    15:00 +4°C° 0.1 mm 2 mps 750 mmHg 91%
    16:00 +3°C° 0.1 mm 2 mps 750 mmHg 92%
    17:00 +3°C° 0.1 mm 2 mps 750 mmHg 94%
    18:00 +2°C° 0.4 mm 3 mps 750 mmHg 93%
    19:00 +1°C° 0.4 mm 3 mps 751 mmHg 93%
    20:00 +1°C° 0.4 mm 3 mps 751 mmHg 93%
    21:00 +2°C° 0.5 mm 2 mps 751 mmHg 93%
    22:00 +2°C° 0.5 mm 2 mps 751 mmHg 93%
    23:00 +2°C° 0.5 mm 2 mps 751 mmHg 92%

    14 December, Thursday

    Time Temperature Precipitation Wind Pressure Humidity
    00:00 +1°C° 0.1 mm 2 mps 751 mmHg 93%
    01:00 +1°C° 0.1 mm 2 mps 751 mmHg 93%
    02:00 +2°C° 0.1 mm 1 mps 751 mmHg 93%
    03:00 +2°C° 0 mm 1 mps 750 mmHg 93%
    04:00 +1°C° 0 mm 1 mps 750 mmHg 93%
    05:00 +1°C° 0 mm 1 mps 750 mmHg 93%
    06:00 +1°C° 0 mm 1 mps 750 mmHg 93%
    07:00 +1°C° 0 mm 1 mps 750 mmHg 93%
    08:00 +1°C° 0 mm 1 mps 750 mmHg 93%
    09:00 +2°C° 0.1 mm 1 mps 750 mmHg 93%
    10:00 +1°C° 0.1 mm 2 mps 749 mmHg 93%
    11:00 +2°C° 0.1 mm 2 mps 749 mmHg 93%
    12:00 +2°C° 0.4 mm 2 mps 748 mmHg 95%
    13:00 +3°C° 0.4 mm 1 mps 748 mmHg 96%
    14:00 +2°C° 0.4 mm 1 mps 747 mmHg 98%
    15:00 +2°C° 0.3 mm 1 mps 747 mmHg 98%
    16:00 +2°C° 0.3 mm 1 mps 747 mmHg 98%
    17:00 +2°C° 0.3 mm 1 mps 747 mmHg 98%
    18:00 +2°C° 0 mm 1 mps 747 mmHg 97%
    19:00 +1°C° 0 mm 1 mps 747 mmHg 97%
    20:00 +1°C° 0 mm 1 mps 747 mmHg 96%
    21:00 +1°C° 0 mm 1 mps 747 mmHg 96%
    22:00 +1°C° 0 mm 1 mps 747 mmHg 96%
    23:00 +1°C° 0 mm 1 mps 747 mmHg 96%

    15 December, Friday

    Time Temperature Precipitation Wind Pressure Humidity
    00:00 -1°C° 0 mm 2 mps 747 mmHg 96%
    01:00 -1°C° 0 mm 2 mps 747 mmHg 96%
    02:00 -1°C° 0 mm 3 mps 748 mmHg 96%
    03:00 -1°C° 0 mm 3 mps 747 mmHg 96%
    04:00 -1°C° 0 mm 3 mps 747 mmHg 96%
    05:00 0°C° 0 mm 3 mps 747 mmHg 95%
    06:00 -1°C° 0 mm 4 mps 747 mmHg 95%
    07:00 -1°C° 0 mm 4 mps 747 mmHg 94%
    08:00 -1°C° 0 mm 5 mps 747 mmHg 93%
    09:00 -1°C° 0 mm 5 mps 747 mmHg 92%
    10:00 -2°C° 0 mm 6 mps 747 mmHg 92%
    11:00 -1°C° 0 mm 6 mps 747 mmHg 91%
    12:00 -1°C° 0.2 mm 6 mps 746 mmHg 90%
    13:00 +1°C° 0.2 mm 6 mps 746 mmHg 89%
    14:00 0°C° 0.2 mm 7 mps 746 mmHg 88%
    15:00 0°C° 0 mm 7 mps 746 mmHg 87%
    16:00 0°C° 0 mm 7 mps 746 mmHg 87%
    17:00 0°C° 0 mm 7 mps 746 mmHg 86%
    18:00 +2°C° 0 mm 6 mps 746 mmHg 87%
    19:00 +2°C° 0 mm 6 mps 746 mmHg 87%
    20:00 +2°C° 0 mm 6 mps 746 mmHg 88%
    21:00 +2°C° 0 mm 6 mps 747 mmHg 89%
    22:00 +2°C° 0 mm 5 mps 747 mmHg 90%
    23:00 +2°C° 0 mm 5 mps 747 mmHg 91%

    16 December, Saturday

    Time Temperature Precipitation Wind Pressure Humidity
    00:00 +1°C° 0 mm 5 mps 747 mmHg 92%
    01:00 +1°C° 0 mm 4 mps 747 mmHg 93%
    02:00 +1°C° 0 mm 4 mps 747 mmHg 95%
    03:00 +3°C° 0.1 mm 4 mps 747 mmHg 95%
    04:00 +2°C° 0.1 mm 5 mps 747 mmHg 95%
    05:00 +2°C° 0.1 mm 5 mps 747 mmHg 95%
    06:00 +3°C° 0.1 mm 6 mps 746 mmHg 94%
    07:00 +3°C° 0.1 mm 6 mps 746 mmHg 93%
    08:00 +4°C° 0.1 mm 7 mps 746 mmHg 92%
    09:00 +4°C° 0.1 mm 8 mps 745 mmHg 90%
    10:00 +5°C° 0.1 mm 8 mps 745 mmHg 89%
    11:00 +5°C° 0.1 mm 8 mps 745 mmHg 87%
    12:00 +5°C° 0 mm 8 mps 745 mmHg 85%
    13:00 +6°C° 0 mm 8 mps 744 mmHg 82%
    14:00 +6°C° 0 mm 8 mps 744 mmHg 80%
    15:00 +6°C° 0 mm 8 mps 744 mmHg 80%
    16:00 +6°C° 0 mm 7 mps 744 mmHg 81%
    17:00 +6°C° 0 mm 7 mps 744 mmHg 81%
    18:00 +6°C° 0 mm 7 mps 744 mmHg 81%
    19:00 +6°C° 0 mm 7 mps 744 mmHg 82%
    20:00 +6°C° 0 mm 7 mps 744 mmHg 82%
    21:00 +6°C° 0.1 mm 7 mps 745 mmHg 84%
    22:00 +7°C° 0.1 mm 6 mps 745 mmHg 86%
    23:00 +7°C° 0.1 mm 6 mps 745 mmHg 88%
    Show more